SVA119 OERK-OEDF

Flight info

Callsign SVA119
Flight time 0h 41m
Altitude 29000
Route ALTAV1D ALTAV H976 MUSRI L604 UMENA UMENA2J
Aircraft B77W/H-SDE1E2E3FGHIJ2J3J4J5M1RWXY/LB1D1

Departure

Time 2026-05-05 22:19
Airport King Khalid International Airport (OERK)

Arrival

Time 2026-05-05 23:01
Airport King Fahd International Airport (OEDF)
Time Latitude Longitude Altitude Speed Heading
2026-05-05 22:19 25.01527 46.71796 7019 ft 261 kts 120°
2026-05-05 22:19 25.00710 46.73445 8401 ft 233 kts 113°
2026-05-05 22:20 25.01379 46.77116 9490 ft 278 kts 41°
2026-05-05 22:20 25.03133 46.78149 9986 ft 295 kts 16°
2026-05-05 22:20 25.05174 46.78813 10460 ft 319 kts 17°
2026-05-05 22:20 25.07370 46.79696 10698 ft 353 kts 22°
2026-05-05 22:21 25.09691 46.80890 11151 ft 376 kts 27°
2026-05-05 22:21 25.12004 46.82319 12006 ft 386 kts 31°
2026-05-05 22:21 25.14293 46.83918 12992 ft 392 kts 33°
2026-05-05 22:21 25.16552 46.85623 13990 ft 397 kts 35°
2026-05-05 22:22 25.18822 46.87416 14867 ft 404 kts 36°
2026-05-05 22:22 25.21110 46.89267 15715 ft 412 kts 36°
2026-05-05 22:22 25.23432 46.91167 16587 ft 419 kts 36°
2026-05-05 22:22 25.25769 46.93086 17485 ft 426 kts 36°
2026-05-05 22:23 25.28147 46.95040 18577 ft 425 kts 35°
2026-05-05 22:23 25.30514 46.96985 19694 ft 424 kts 35°
2026-05-05 22:23 25.32900 46.98943 20535 ft 430 kts 35°
2026-05-05 22:23 25.35327 47.00932 21320 ft 438 kts 35°
2026-05-05 22:24 25.37797 47.02958 22123 ft 444 kts 35°
2026-05-05 22:24 25.40230 47.04952 22916 ft 450 kts 35°
2026-05-05 22:24 25.42683 47.06965 23638 ft 456 kts 35°
2026-05-05 22:24 25.45335 47.09143 24299 ft 463 kts 34°
2026-05-05 22:25 25.47938 47.11282 24924 ft 470 kts 34°
2026-05-05 22:25 25.50546 47.13426 25536 ft 476 kts 34°
2026-05-05 22:25 25.53256 47.15655 26166 ft 482 kts 34°
2026-05-05 22:25 25.55932 47.17857 26759 ft 489 kts 34°
2026-05-05 22:26 25.58677 47.20118 26910 ft 494 kts 33°
2026-05-05 22:26 25.61427 47.22385 26888 ft 491 kts 33°
2026-05-05 22:26 25.64164 47.24645 26899 ft 490 kts 33°
2026-05-05 22:26 25.66902 47.26905 26895 ft 491 kts 33°
2026-05-05 22:27 25.69646 47.29171 26896 ft 491 kts 33°
2026-05-05 22:27 25.72388 47.31435 26888 ft 492 kts 33°
2026-05-05 22:27 25.75164 47.33662 26886 ft 491 kts 30°
2026-05-05 22:27 25.78054 47.35664 26887 ft 489 kts 27°
2026-05-05 22:28 25.80975 47.37605 26888 ft 489 kts 27°
2026-05-05 22:28 25.83893 47.39537 26880 ft 489 kts 27°
2026-05-05 22:28 25.86816 47.41487 26880 ft 488 kts 27°
2026-05-05 22:28 25.89723 47.43446 26876 ft 488 kts 27°
2026-05-05 22:29 25.92617 47.45406 26876 ft 487 kts 27°
2026-05-05 22:29 25.95468 47.47340 26882 ft 487 kts 27°
2026-05-05 22:29 25.98363 47.49301 26873 ft 486 kts 27°
2026-05-05 22:29 26.01247 47.51251 26870 ft 485 kts 27°
2026-05-05 22:30 26.04128 47.53199 26870 ft 485 kts 27°
2026-05-05 22:30 26.07018 47.55155 26872 ft 485 kts 27°
2026-05-05 22:30 26.09898 47.57105 26866 ft 484 kts 27°
2026-05-05 22:30 26.12775 47.59055 26863 ft 484 kts 27°
2026-05-05 22:31 26.15651 47.61007 26864 ft 484 kts 27°
2026-05-05 22:31 26.18530 47.62962 26864 ft 484 kts 27°
2026-05-05 22:31 26.21397 47.64909 26859 ft 484 kts 27°
2026-05-05 22:31 26.24246 47.66898 26857 ft 483 kts 32°
2026-05-05 22:32 26.26693 47.69426 26857 ft 491 kts 49°
2026-05-05 22:32 26.28012 47.71545 26867 ft 494 kts 59°
2026-05-05 22:32 26.29631 47.76285 26858 ft 494 kts 78°
2026-05-05 22:32 26.30100 47.78827 26880 ft 495 kts 79°
2026-05-05 22:33 26.30784 47.82605 26850 ft 499 kts 79°
2026-05-05 22:33 26.31494 47.86399 26855 ft 500 kts 78°
2026-05-05 22:33 26.32226 47.90144 26843 ft 502 kts 78°
2026-05-05 22:33 26.32991 47.93943 26838 ft 502 kts 77°
2026-05-05 22:34 26.33764 47.97734 26833 ft 502 kts 77°
2026-05-05 22:34 26.34538 48.01529 26836 ft 501 kts 77°
2026-05-05 22:34 26.35309 48.05330 26834 ft 500 kts 77°
2026-05-05 22:34 26.36074 48.09111 26816 ft 500 kts 77°
2026-05-05 22:35 26.36840 48.12883 26823 ft 499 kts 77°
2026-05-05 22:35 26.37605 48.16646 26810 ft 497 kts 77°
2026-05-05 22:35 26.38367 48.20402 26540 ft 493 kts 77°
2026-05-05 22:35 26.39119 48.24113 26078 ft 488 kts 77°
2026-05-05 22:36 26.39862 48.27787 25609 ft 482 kts 77°
2026-05-05 22:36 26.40595 48.31422 25116 ft 478 kts 77°
2026-05-05 22:36 26.41311 48.34975 24655 ft 473 kts 77°
2026-05-05 22:36 26.42029 48.38539 24199 ft 468 kts 77°
2026-05-05 22:37 26.42737 48.42067 23746 ft 464 kts 77°
2026-05-05 22:37 26.43439 48.45563 23312 ft 459 kts 77°
2026-05-05 22:37 26.44128 48.49003 22906 ft 451 kts 78°
2026-05-05 22:37 26.44809 48.52405 22494 ft 445 kts 78°
2026-05-05 22:38 26.45477 48.55748 22046 ft 440 kts 78°
2026-05-05 22:38 26.46141 48.59072 21539 ft 437 kts 78°
2026-05-05 22:38 26.46799 48.62372 21046 ft 434 kts 78°
2026-05-05 22:38 26.47428 48.65647 20579 ft 429 kts 81°
2026-05-05 22:39 26.47522 48.68892 19930 ft 412 kts 99°
2026-05-05 22:39 26.47111 48.71993 19435 ft 396 kts 101°
2026-05-05 22:39 26.46705 48.74975 18957 ft 382 kts 100°
2026-05-05 22:39 26.46326 48.77874 18451 ft 371 kts 100°
2026-05-05 22:40 26.45977 48.80659 17860 ft 363 kts 99°
2026-05-05 22:40 26.45638 48.83439 17118 ft 359 kts 99°
2026-05-05 22:40 26.45308 48.86195 16426 ft 356 kts 99°
2026-05-05 22:40 26.44987 48.88913 15787 ft 352 kts 99°
2026-05-05 22:41 26.44671 48.91601 15159 ft 347 kts 99°
2026-05-05 22:41 26.44360 48.94254 14559 ft 342 kts 99°
2026-05-05 22:41 26.44054 48.96868 13963 ft 337 kts 99°
2026-05-05 22:41 26.43751 48.99444 13357 ft 333 kts 99°
2026-05-05 22:42 26.43450 49.01999 12682 ft 330 kts 99°
2026-05-05 22:42 26.43150 49.04537 12003 ft 328 kts 99°
2026-05-05 22:42 26.42852 49.07059 11382 ft 331 kts 99°
2026-05-05 22:42 26.42554 49.09571 11016 ft 329 kts 99°
2026-05-05 22:43 26.42256 49.12090 10752 ft 325 kts 99°
2026-05-05 22:43 26.41962 49.14570 10583 ft 317 kts 99°
2026-05-05 22:43 26.41678 49.16969 10457 ft 308 kts 99°
2026-05-05 22:43 26.41400 49.19309 10295 ft 300 kts 99°
2026-05-05 22:44 26.41128 49.21594 10049 ft 295 kts 99°
2026-05-05 22:44 26.40859 49.23850 9803 ft 291 kts 99°
2026-05-05 22:44 26.40592 49.26083 9391 ft 291 kts 99°
2026-05-05 22:44 26.40322 49.28329 8958 ft 292 kts 99°
2026-05-05 22:45 26.40057 49.30572 8575 ft 290 kts 99°
2026-05-05 22:45 26.39799 49.32773 8209 ft 289 kts 99°
2026-05-05 22:45 26.39538 49.34984 7904 ft 284 kts 99°
2026-05-05 22:45 26.39286 49.37128 7932 ft 277 kts 99°
2026-05-05 22:46 26.39027 49.39293 7943 ft 286 kts 99°
2026-05-05 22:46 26.38757 49.41517 7953 ft 291 kts 99°
2026-05-05 22:46 26.38487 49.43743 7896 ft 286 kts 99°
2026-05-05 22:46 26.38224 49.45918 7633 ft 282 kts 99°
2026-05-05 22:47 26.37959 49.48097 7233 ft 287 kts 99°
2026-05-05 22:47 26.37691 49.50305 7096 ft 287 kts 99°
2026-05-05 22:47 26.37424 49.52496 7048 ft 283 kts 99°
2026-05-05 22:47 26.37160 49.54667 6909 ft 282 kts 100°
2026-05-05 22:48 26.36578 49.56705 6945 ft 275 kts 124°
2026-05-05 22:48 26.35438 49.58385 6967 ft 278 kts 131°
2026-05-05 22:48 26.34232 49.60087 6764 ft 282 kts 130°
2026-05-05 22:48 26.33017 49.61826 6267 ft 286 kts 130°
2026-05-05 22:49 26.31802 49.63577 5881 ft 281 kts 130°
2026-05-05 22:49 26.30659 49.65233 5792 ft 255 kts 130°
2026-05-05 22:49 26.29633 49.66720 5810 ft 229 kts 131°
2026-05-05 22:49 26.28703 49.68065 5836 ft 214 kts 131°
2026-05-05 22:50 26.27799 49.69367 5758 ft 211 kts 131°
2026-05-05 22:50 26.26902 49.70658 5451 ft 209 kts 131°
2026-05-05 22:50 26.26268 49.72103 4972 ft 214 kts 100°
2026-05-05 22:50 26.26546 49.73725 4551 ft 220 kts 63°
2026-05-05 22:51 26.27677 49.74855 4116 ft 223 kts 24°
2026-05-05 22:51 26.29200 49.75222 3834 ft 230 kts 13°
2026-05-05 22:51 26.30578 49.76054 3744 ft 222 kts 49°
2026-05-05 22:51 26.31256 49.77534 3755 ft 213 kts 85°
2026-05-05 22:52 26.31052 49.79111 3757 ft 204 kts 121°
2026-05-05 22:52 26.30103 49.80183 3738 ft 196 kts 155°
2026-05-05 22:52 26.28825 49.80692 3754 ft 196 kts 166°
2026-05-05 22:52 26.27478 49.80739 3752 ft 195 kts 190°
2026-05-05 22:53 26.26167 49.80357 3739 ft 193 kts 197°
2026-05-05 22:53 26.24957 49.79861 3724 ft 179 kts 202°
2026-05-05 22:53 26.23862 49.79295 3716 ft 170 kts 204°
2026-05-05 22:53 26.22790 49.78780 3733 ft 167 kts 195°
2026-05-05 22:54 26.21642 49.78726 3754 ft 168 kts 171°
2026-05-05 22:54 26.20504 49.79072 3729 ft 173 kts 154°
2026-05-05 22:54 26.19718 49.80064 3735 ft 178 kts 113°
2026-05-05 22:54 26.19724 49.81451 3755 ft 186 kts 78°
2026-05-05 22:55 26.20170 49.82828 3754 ft 191 kts 72°
2026-05-05 22:55 26.20697 49.84182 3725 ft 187 kts 70°
2026-05-05 22:55 26.21301 49.85417 3717 ft 179 kts 55°
2026-05-05 22:55 26.22266 49.86280 3727 ft 182 kts 21°
2026-05-05 22:56 26.23515 49.86312 3762 ft 183 kts 345°
2026-05-05 22:56 26.24764 49.85958 3761 ft 188 kts 345°
2026-05-05 22:56 26.26026 49.85624 3754 ft 196 kts 345°
2026-05-05 22:56 26.27415 49.85254 3762 ft 202 kts 344°
2026-05-05 22:57 26.28707 49.84780 3483 ft 191 kts 338°
2026-05-05 22:57 26.29909 49.84265 3172 ft 180 kts 336°
2026-05-05 22:57 26.31069 49.83781 2900 ft 177 kts 339°
2026-05-05 22:57 26.32243 49.83334 2709 ft 178 kts 341°
2026-05-05 22:58 26.33430 49.82888 2440 ft 180 kts 341°
2026-05-05 22:58 26.34621 49.82502 2219 ft 179 kts 347°
2026-05-05 22:58 26.35849 49.82173 2008 ft 183 kts 345°
2026-05-05 22:58 26.37094 49.81800 1770 ft 187 kts 345°
2026-05-05 22:59 26.38320 49.81419 1522 ft 183 kts 344°
2026-05-05 22:59 26.39526 49.81027 1227 ft 176 kts 345°
2026-05-05 22:59 26.40696 49.80680 1021 ft 173 kts 344°
2026-05-05 22:59 26.41827 49.80327 813 ft 162 kts 346°
2026-05-05 23:00 26.43905 49.79673 425 ft 154 kts 341°
2026-05-05 23:00 26.44947 49.79351 222 ft 156 kts 341°
2026-05-05 23:00 26.45982 49.79027 95 ft 148 kts 341°
2026-05-05 23:01 26.46724 49.78797 96 ft 84 kts 345°
2026-05-05 23:01 26.47105 49.78720 94 ft 39 kts
2026-05-05 23:01 26.47296 49.78766 91 ft 17 kts 14°
2026-05-05 23:01 26.47378 49.78788 94 ft 7 kts 14°
2026-05-05 23:02 26.47426 49.78812 92 ft 8 kts 36°
2026-05-05 23:02 26.47459 49.78872 93 ft 10 kts 70°
2026-05-05 23:02 26.47481 49.78949 91 ft 11 kts 73°
2026-05-05 23:02 26.47503 49.79035 94 ft 12 kts 80°
2026-05-05 23:03 26.47465 49.79111 94 ft 12 kts 152°
2026-05-05 23:03 26.47383 49.79145 94 ft 13 kts 164°
2026-05-05 23:03 26.47301 49.79179 92 ft 13 kts 154°
2026-05-05 23:03 26.47221 49.79222 92 ft 13 kts 154°
2026-05-05 23:04 26.47141 49.79264 95 ft 13 kts 154°
2026-05-05 23:04 26.47062 49.79307 93 ft 13 kts 154°
2026-05-05 23:04 26.46985 49.79350 93 ft 11 kts 155°
2026-05-05 23:04 26.46940 49.79381 95 ft 4 kts 129°
2026-05-05 23:05 26.46936 49.79406 93 ft 3 kts 90°
2026-05-05 23:05 26.46939 49.79431 92 ft 4 kts 76°
2026-05-05 23:05 26.46946 49.79453 94 ft 0 kts 68°